Home   Weather   Rodez   Past weeks

Flag for France Past Weather in Rodez, Midi-Pyrénées, France — Yesterday and Last 2 Weeks

Now
41 °F

Sunny.


Feels Like: 38 °F
Forecast: 28 / 47 °F
Wind: 5 mph from Northwest

Location: Rodez Airport

Current Time: Dec 11, 2016 at 11:19:03 am

Latest Report: Dec 11, 2016 at 11:00 am


Visibility: 10 mi

Pressure: 30.30 "Hg (28.00 "Hg at 642m altitude)

Humidity: 87%

Dew Point: 37 °F

Location of RodezLocation

Past Weather in Rodez — Graph

°F

Rodez Temperature Yesterday

Maximum temperature yesterday: 55 °F (at 2:00 pm)
Minimum temperature yesterday: 23 °F (at 8:00 am)
Average temperature yesterday: 36 °F

High & Low Weather Summary for the Past Weeks

 TemperatureHumidityPressure
High59 °F (Nov 27, 3:00 pm)100% (Nov 28, 3:00 am)30.54 "Hg (Nov 28, 3:00 am)
Low23 °F (Dec 1, 7:30 am)35% (Dec 2, 2:00 pm)29.86 "Hg (Nov 28, 3:30 am)
Average42 °F78%30.21 "Hg
* Reported Nov 26 10:00 am — Dec 11 10:00 am, Rodez, Weather by CustomWeather, © 2016

Note: Actual official high and low records may vary slightly from our data, if they occured in-between our weather recording intervals... More about our weather records

Advertising

Rodez Weather History for the Previous 24 Hours

Scroll right to see more
 ConditionsComfort  
Time TempWeatherWind HumidityBarometerVisibility
10:00 am
Sun, Dec 11
36 °FSunny.2 mph93%30.30 "Hg10 mi
9:30 am34 °FClear.No wind100%30.30 "Hg6 mi
9:00 am30 °FSunny.3 mph100%30.30 "Hg10 mi
8:30 am27 °FSunny.No wind100%30.30 "Hg10 mi
8:00 am27 °FClear.No wind93%30.30 "Hg6 mi
7:30 am25 °FClear.2 mph100%30.30 "Hg6 mi
7:00 am25 °FClear.2 mph93%30.30 "Hg10 mi
6:30 am27 °FClear.1 mph93%30.30 "Hg4 mi
6:00 am28 °FClear.No wind100%30.30 "Hg5 mi
5:30 am27 °FClear.No wind100%30.30 "Hg5 mi
5:00 am28 °FClear.No wind100%30.30 "Hg6 mi
4:30 am28 °FClear.No wind100%30.30 "Hg10 mi
4:00 am28 °FClear.No wind93%30.30 "Hg10 mi
3:30 am28 °FClear.2 mph93%30.30 "Hg4 mi
3:00 am28 °FClear.2 mph93%30.30 "Hg4 mi
2:30 am28 °FIce fog.No wind100%30.30 "Hg3 mi
2:00 am28 °FClear.1 mph100%30.30 "Hg10 mi
1:30 am28 °FClear.No wind100%30.30 "Hg4 mi
1:00 am28 °FIce fog.2 mph93%30.30 "Hg3 mi
12:30 am30 °FIce fog.No wind100%30.30 "Hg3 mi
12:00 am30 °FClear.No wind100%30.30 "Hg4 mi
11:30 pm
Sat, Dec 10
30 °FClear.No wind100%30.30 "Hg4 mi
11:00 pm28 °FClear.2 mph93%30.30 "Hg4 mi
10:30 pm32 °FClear.No wind100%30.30 "Hg4 mi
10:00 pm32 °FClear.1 mph100%30.30 "Hg10 mi
9:30 pm32 °FClear.2 mph100%30.30 "Hg6 mi
9:00 pm32 °FClear.3 mph100%30.30 "Hg10 mi
8:30 pm32 °FClear.3 mph93%30.30 "Hg10 mi
8:00 pm32 °FClear.3 mph93%30.30 "Hg10 mi
7:30 pm34 °FClear.No wind100%30.30 "Hg10 mi
7:00 pm34 °FClear.1 mph93%30.30 "Hg6 mi
6:30 pm37 °FClear.No wind81%30.30 "Hg10 mi
6:00 pm41 °FClear.No wind87%30.30 "Hg10 mi
5:30 pm43 °FClear.No wind81%30.30 "Hg10 mi
5:00 pm46 °FSunny.5 mph71%30.30 "Hg10 mi
4:30 pm48 °FSunny.5 mph71%30.30 "Hg10 mi
4:00 pm52 °FSunny.3 mph62%30.30 "Hg10 mi
3:30 pm54 °FSunny.2 mph54%30.30 "Hg10 mi
3:00 pm54 °FSunny.2 mph63%30.30 "Hg10 mi
2:30 pm54 °FSunny.No wind58%30.30 "Hg10 mi
2:00 pm55 °FSunny.No wind55%30.33 "Hg10 mi
1:30 pm54 °FSunny.1 mph63%30.33 "Hg10 mi
1:00 pm52 °FSunny.No wind72%30.33 "Hg10 mi
12:30 pm50 °FSunny.2 mph76%30.33 "Hg10 mi
12:00 pm50 °FSunny.1 mph76%30.36 "Hg10 mi
11:30 am46 °FSunny.2 mph82%30.36 "Hg10 mi
11:00 am43 °FSunny.2 mph87%30.36 "Hg10 mi
Weather by CustomWeather, © 2016

See weather overviewHow to use our weather pages